Wetterübersicht - Buedelsdorf, Schleswig-Holstein     12 m über NN
Gesetzliche Zeit
54°19'13''N 09°39'48''E
Datum Montag, 20. Mai 2024
Aktualisierung von 00:00 Uhr bis 24:00 Uhr alle 10 Minuten.
Zeit 03:52 (-2h = UTC-Zeit)
Temperatur Außen 2m Höhe aktuell
12,8 °C
Min.(03:50)
12,8 °C
Vorjahr(04:08)
8,3 °C
Max.(01:14)
14,2 °C
Vorjahr(17:19)
17,6 °C
Durchschnitt
16,1 °C
Vorjahr
12,8 °C
Statistik Daten ab 2002
Min.
Min. (20.05.2008)
1,6 °C
Max. (20.05.2024)
13,8 °C
Durchschnitt(20.05.2008)
9,4 °C
Statistik Daten ab 2002
Max.
Min. (20.05.2024)
13,9 °C
Max. (20.05.2014)
26,0 °C
Durchschnitt(20.05.2014)
17,4 °C
Gras-Temperatur (+5cm) aktuell
10,0 °C
Min.(03:51)
10,0 °C
Vorjahr(01:26)
5,1 °C
Max.(01:26)
13,3 °C
Vorjahr(12:18)
28,9 °C
Durchschnitt
16,7 °C
Vorjahr
12,9 °C
Statistik Daten ab 2002
Min.
Min.(20.05.2008)
-0,6 °C
Max. (20.05.2019)
12,2 °C
Durchschnitt(20.05.2008)
9,3 °C
Statistik Daten ab 2002
Max.
Min.(20.05.2024)
12,2 °C
Max. (20.05.2014)
37,2 °C
Durchschnitt(20.05.2022)
17,7 °C
Bodentemperatur 15 cm Tiefe aktuell
15,0 °C
Min.(03:33)
15,0 °C
Vorjahr(09:51)
12,2 °C
Max.(00:00)
16,1 °C
Vorjahr(19:02)
15,6 °C
Durchschnitt
16,0 °C
Vorjahr
13,7 °C
Bodenfeuchte 15cm Tiefe
 0-10cb -> gesättigt
10-20cb -> ausreichend feucht
20-40cb -> allmählich trocken
40-60cb -> Bewässerung empfohlen.
60-100cb -> Bewässerung nötig!
>100cb -> ohne Bewässerung Trockenschäden wahrscheinlich!
aktuell
33 cb
Min.(00:00)
33 cb
Vorjahr(09:51)
20 cb
Max.(00:00)
33 cb
Vorjahr(23:04)
23 cb
Durchschnitt
31 cb
Vorjahr
21 cb
Bodentemperatur 40cm Tiefe aktuell
14,4 °C
Min.(00:00)
14,4 °C
Vorjahr(11:27)
12,2 °C
Max.(00:00)
14,4 °C
Vorjahr(00:00)
12,8 °C
Durchschnitt
14,4 °C
Vorjahr
12,6 °C
Bodenfeuchte 40cm Tiefe aktuell
19 cb
Min.(00:00)
19 cb
Vorjahr(00:00)
19 cb
Max.(00:00)
19 cb
Vorjahr(00:00)
19 cb
Durchschnitt
19 cb
Vorjahr
19 cb
Luftfeuchte Außen 2m Höhe aktuell
89 %
Min.(00:00)
84 %
Max.(03:49)
89 %
Durchschnitt
74 %
Taupunkt aktuell
11,0 °C
Min.(03:46)
11,0 °C
Max.(01:36)
11,8 °C
Durchschnitt
11,2 °C
Luftdruck
aktuell
1010,7 hPa
gleichbleibend

+0,1 hPa/3h
Min.(00:00)
1010,5 hPa
Max.(02:15)
1010,8 hPa
Durchschnitt
1010,2 hPa
-0,1 hPa/1h 0,0 hPa/2h +0,5 hPa/6h +1,2 hPa/12h +0,4 hPa/24h
UV-Index aktuell
0,0 UV-I
Max.(00:00)
0,0 UV-I
Vorjahr(13:41)
4,3 UV-I
Durchschnitt
0,0 UV-I
Vorjahr
1,7 UV-I
Solarstrahlung aktuell
0 W/m²
Max.(00:00)
0 W/m²
Vorjahr(13:42)
1035 W/m²
Durchschnitt
0 W/m²
Vorjahr
417 W/m²
Wettervorhersage bewölkt
Wettervorhersage VantagePro Zunehmende Bewölkung mit wenig Temperaturänderung.
Persönliches Wohlbefinden mäßige Wärmebelastung (17)
Windchill aktuell
12,8 °C
Min.(03:50)
12,8 °C
Vorjahr(04:31)
6,9 °C
Max.(01:14)
14,2 °C
Vorjahr(17:19)
17,6 °C
Durchschnitt
16,1 °C
Vorjahr
12,7 °C
WindBöen aktuell
0,0 km/h (0 Bft)
Max.(01:00)
NO 12,5 km/h
Vorjahr(14:48)
46,9 km/h
Durchschnitt
8,8 km/h (2 Bft)
Vorjahr
18,2 km/h
Höchste WindBöe letzte Stunde
5,4 km/h
letzte 3 Stunden
12,5 km/h
letzte 6 Stunden
12,5 km/h
Windgeschwindigkeit aktuell
0,0 km/h (0 Bft)
Max.(00:58)
NO 7,1 km/h
Vorjahr(12:54)
27,0 km/h
Durchschnitt
4,9 km/h (1 Bft)
Vorjahr
10,9 km/h
Windrichtung 0 ° / N dominierend
NO
Dämmerungszahl -6,47
Niederschlag
letzte Std. 0,0 l/m²
aktueller Tag 0,0 l/m²
aktuelle Woche 0,0 l/m²
aktueller Monat 20,0 l/m²
letzter Monat 104,4 l/m²
Mai Vorjahr 33,4 l/m²
aktuelles Jahr 353,4 l/m²
Regen / Jahr 100 Tage
Niederschl.-Dauer:
3:53 Stunden
Niederschl.-Dauer letzte Stunde:
60 min
Niederschl.-Dauer letzte 3 Stunden:
180 min
Niederschl.-Dauer Monat:
(bis Vortag)
159:12 Stunden
Trockenzeiten
Längste Trockenzeit 13.04.2022, 22:24 Uhr
bis
10.05.2022 14:11 Uhr
Dauer: 26 Tage, 15 Stunden, 46 Minuten
Letzter Niederschlag am 20.05.2024 um 03:52 Uhr
Trocken seit ---
Kälteperioden
Letzte Dauerfrostperiode 23.04.2024 01:35 Uhr
bis
23.04.2024 07:07 Uhr
Dauer: 5 Stunden, 31 Minuten
Längste Dauerfrostperiode Jahr 28.11.2023 04:54 Uhr
bis
06.12.2023 11:31 Uhr
Dauer: 8 Tage, 6 Stunden, 37 Minuten
Mond
Alter des Mondes11 Tage, 11 Stunden, 38 Minuten
Mondaufgang18:09
Mondzenit23:09
Monduntergang03:47
Mondphase+88%
(0% = Neumond, 100% = Vollmond)
letztes Viertel19:13 30.05.2024
erstes Viertel07:19 14.06.2024
nächster Vollmond15:54 23.05.2024
nächster Neumond14:38 06.06.2024
Sonne
Sonnenaufgang05:08
Sonnenzenit13:17
Sonnenhöchststand55,813 °
Sonnenintensität aktuell0 W/m²
Sonnenuntergang21:28
Sonnenaufgang morgen05:06 21.05.2024
Tageslänge16:19
Bewölkungsgraddunkel 0 %
Sonnenschein0 Minuten
Sonnenschein 20.05. Vorjahr11:45 Stunden
Sonnenschein Woche (bis Vortag)0 Minuten
Sonnenschein Monat (bis Vortag)194:41 Stunden
Sichtweitedunkel ! - 6-10 km
Die dargestellten Werte repräsentieren die Daten der letzten 24 Stunden! Der Luftdruck ist auf Meereshöhe bezogen!
Die Mond-/Sonnen-Daten beziehen sich auf die Standortkoordinaten von 54° 19' 13" Nord - 9° 39' 48" Ost
Zeit --> Mitteleuropäische Sommerzeit
Die Wettervorhersage wurde berechnet - ohne Gewähr!

          Aussen-    Aussen                                        UV                    Wind                              
Zeit     tempera.   Feuchte   Luftdruck   Taupunkt  Windchill      Index        Wind     richtung     Sonne          Regen        
----------------------------------------------------------------------------------------------------------------------------
04:00     12,8 °C      79 %  1010,3 hPa     9,2 °C    12,8 °C     0,0 UV-I      0,0 km/h     N-NO       0 W/m²     0,0 l/m²   
05:00     11,9 °C      84 %  1010,1 hPa     9,3 °C    11,9 °C     0,0 UV-I      7,1 km/h     N-NO       0 W/m²     0,0 l/m²   
06:00     11,7 °C      86 %  1010,3 hPa     9,4 °C    11,7 °C     0,0 UV-I      5,4 km/h       NO      19 W/m²     0,0 l/m²   
07:00     12,4 °C      85 %  1010,3 hPa     9,9 °C    12,4 °C     0,0 UV-I      1,8 km/h       NO     111 W/m²     0,0 l/m²   
08:00     14,4 °C      78 %  1010,6 hPa    10,6 °C    14,4 °C     0,5 UV-I      7,1 km/h     O-NO     158 W/m²     0,0 l/m²   
09:00     15,0 °C      78 %  1010,9 hPa    11,2 °C    15,0 °C     0,0 UV-I      7,1 km/h     N-NO     106 W/m²     0,0 l/m²   
10:00     15,0 °C      78 %  1011,2 hPa    11,2 °C    15,0 °C     0,0 UV-I      3,6 km/h       NO      64 W/m²     0,0 l/m²   
11:00     16,6 °C      72 %  1011,2 hPa    11,5 °C    16,6 °C     1,4 UV-I      8,9 km/h     O-NO     487 W/m²     0,0 l/m²   
12:00     18,8 °C      65 %  1010,6 hPa    12,1 °C    18,8 °C     2,1 UV-I      3,6 km/h        N     467 W/m²     0,0 l/m²   
13:00     20,6 °C      57 %  1010,4 hPa    11,8 °C    20,6 °C     3,2 UV-I      7,1 km/h        O    1089 W/m²     0,0 l/m²   
14:00     18,5 °C      68 %  1010,3 hPa    12,5 °C    18,5 °C     0,6 UV-I      3,6 km/h       NO     104 W/m²     0,0 l/m²   
15:00     20,0 °C      65 %  1009,8 hPa    13,2 °C    20,0 °C     1,6 UV-I      3,6 km/h       SO     332 W/m²     0,0 l/m²   
16:00     21,4 °C      60 %  1009,5 hPa    13,3 °C    21,4 °C     1,6 UV-I      5,4 km/h     O-NO     533 W/m²     0,0 l/m²   
17:00     19,7 °C      57 %  1009,2 hPa    10,9 °C    19,7 °C     1,3 UV-I      8,9 km/h     O-NO     243 W/m²     0,0 l/m²   
18:00     20,7 °C      59 %  1009,0 hPa    12,4 °C    20,7 °C     0,8 UV-I     17,9 km/h     N-NO     406 W/m²     0,0 l/m²   
19:00     19,6 °C      61 %  1008,9 hPa    11,9 °C    19,6 °C     0,0 UV-I     10,7 km/h     O-NO     278 W/m²     0,0 l/m²   
20:00     18,9 °C      66 %  1009,2 hPa    12,4 °C    18,9 °C     0,0 UV-I      8,9 km/h     N-NO     120 W/m²     0,0 l/m²   
21:00     17,6 °C      70 %  1009,8 hPa    12,1 °C    17,6 °C     0,0 UV-I      0,0 km/h       NO      13 W/m²     0,0 l/m²   
22:00     15,8 °C      74 %  1010,2 hPa    11,2 °C    15,8 °C     0,0 UV-I      1,8 km/h       NO       0 W/m²     0,0 l/m²   
23:00     14,7 °C      79 %  1010,3 hPa    11,1 °C    14,7 °C     0,0 UV-I      1,8 km/h     N-NO       0 W/m²     0,0 l/m²   
00:00     13,8 °C      84 %  1010,5 hPa    11,1 °C    13,8 °C     0,0 UV-I      1,8 km/h       NO       0 W/m²     0,0 l/m²   
01:00     14,0 °C      86 %  1010,6 hPa    11,7 °C    14,0 °C     0,0 UV-I      5,4 km/h       NO       0 W/m²     0,0 l/m²   
02:00     13,6 °C      87 %  1010,7 hPa    11,5 °C    13,6 °C     0,0 UV-I      1,8 km/h       NO       0 W/m²     0,0 l/m²   
03:00     13,3 °C      88 %  1010,7 hPa    11,4 °C    13,3 °C     0,0 UV-I      3,6 km/h     N-NO       0 W/m²     0,0 l/m²   
----------------------------------------------------------------------------------------------------------------------------
Durch.    16,1 °C      74 %  1010,2 hPa    11,2 °C    16,1 °C                   4,9 km/h                           0,0 l/m²

Min.      11,6 °C      53 %  1008,8 hPa     9,2 °C    11,6 °C
Zeit       06:04     16:19      18:21       04:02     06:04

Max.      22,1 °C      89 %  1011,5 hPa    14,4 °C                             12,5 km/h             1089 W/m²
Zeit       16:14     03:49      10:11       14:39                              01:00                  13:00

© 1999-2022 Werner Krenn - Wetterstation Bedien- und Auswertesoftware - V2.99.9.0

Jahres-Eistage (Tmax < 0°C) 4 Vorjahres-Eistage (Tmax < 0°C) 7
Jahres-Frostage (Tmin <= 0°C) 20 Vorjahres-Frostage (Tmin <= 0°C) 49
Kalte Tage des Jahres (Tmax < 10°C) 68 Kalte Tage des Vorjahres (Tmax < 10°C) 129
Jahres-Sommertage (Tmax >= 25°C) 3 Vorjahres-Sommertage (Tmax >= 25°C) 26
Heiße Tage des Jahres (Tmax >= 30°C) 0 Heiße Tage Vorjahr (Tmax >= 30°C) 1